Temperature
19 18 18 18 17 17 17 16 16 16 16 16 16 16 16 16 16 16 16 16 16 16 16 16 16 16 16 16 16 16 16 15 15 15 15 15 15 15 15 15 15 15 15
19 18 18 17 17 17 16 16 16 16 16 16 16 16 16 16 16 15 15 15 16 16 15 15 15 15 15 15 15 15 15 15 15 15 15 15 15 15 15 15 15 15 14
18 18 17 17 17 17 16 16 16 16 16 16 16 16 16 15 15 15 15 15 15 15 15 15 15 15 15 15 15 15 15 15 15 14 14 14 14 14 14 14 14 14 14
18 17 17 17 17 16 16 16 16 16 16 15 15 15 15 15 15 15 15 15 15 14 14 14 14 14 14 14 14 14 14 14 14 14 14 14 14 14 14 14 14 14 14
18 17 17 17 16 16 16 16 16 15 15 15 15 15 15 15 14 14 14 14 14 14 14 14 14 14 14 14 14 14 14 14 14 14 14 14 14 14 14 14 14 14 13
17 17 17 16 16 16 16 16 15 15 15 15 15 15 15 14 14 14 14 14 14 14 14 14 14 14 13 13 13 13 13 13 13 13 13 13 13 13 13 13 13 13 13
17 17 17 16 16 16 16 15 15 15 15 15 15 14 14 14 14 14 14 14 13 13 13 13 13 13 13 13 13 13 13 13 13 13 13 13 13 13 13 13 13 13 13
17 17 16 16 16 16 16 15 15 15 15 15 14 14 14 14 14 14 13 13 13 13 13 13 13 13 13 12 12 12 12 12 12 12 12 12 12 12 13 13 12 12 12
17 17 16 16 16 15 15 15 15 14 14 14 14 14 13 13 13 13 13 13 13 13 12 12 12 12 12 12 12 12 12 12 12 12 12 12 12 12 12 12 12 12 12
17 16 16 16 15 15 15 15 14 14 14 14 13 13 13 13 13 13 12 12 12 12 12 12 12 12 12 11 11 11 11 11 11 12 12 12 12 12 12 12 12 12 11
16 16 16 15 15 15 14 14 14 13 13 13 13 13 13 12 12 12 12 12 12 12 12 12 12 11 11 11 11 11 11 11 11 11 11 12 12 12 12 12 11 11 11
16 15 15 15 14 14 14 13 13 13 13 13 13 12 12 12 12 12 12 12 12 11 11 11 11 11 11 11 11 11 11 11 11 11 11 11 11 11 11 11 11 11 11
15 14 14 14 14 13 13 13 13 12 12 12 12 12 12 12 12 11 11 11 11 11 11 11 11 11 11 11 11 11 11 11 11 11 11 11 11 11 11 11 11 11 11
14 14 14 13 13 13 13 13 12 12 12 12 12 11 11 11 11 11 11 11 11 11 11 11 11 10 10 10 11 11 10 10 10 10 10 10 10 10 11 11 11 11 11
14 14 13 13 13 12 12 12 12 12 12 11 11 11 11 11 11 11 10 10 10 10 10 10 10 10 10 10 10 10 10 10 10 10 10 10 10 10 10 10 10 10 10
13 13 13 12 12 12 12 12 11 11 11 11 11 10 10 10 10 10 10 10 10 10 10 10 10 10 10 10 10 10 10 10 10 10 10 10 10 10 10 10 10 10 10
13 12 12 12 12 11 11 11 11 11 11 11 10 10 10 10 10 10 10 9 9 9 9 9 9 9 9 9 9 9 9 9 9 9 9 10 10 10 9 10 10 10 10
12 12 12 11 11 11 11 11 11 11 10 10 10 10 10 10 9 9 9 9 9 9 9 9 8 9 9 9 9 9 9 9 9 9 9 9 9 9 9 9 9 9 9
12 12 11 11 11 11 11 11 11 10 10 10 10 10 10 9 9 9 9 9 9 8 8 8 8 8 8 8 8 9 9 8 9 9 9 9 9 9 9 9 9 9 9
11 11 11 11 11 10 10 10 10 10 10 10 10 9 9 9 9 9 9 8 8 8 8 8 8 8 8 8 8 8 8 8 8 8 8 8 8 8 9 9 9 9 9
11 11 11 11 10 10 10 10 10 10 10 10 9 9 9 9 9 8 8 8 8 8 7 7 7 8 8 8 8 8 8 8 8 8 8 8 8 8 8 8 8 8 8
10 10 10 10 10 10 10 10 9 9 9 9 9 9 9 8 8 8 8 8 8 7 7 7 7 7 7 7 7 7 7 8 8 8 8 8 8 8 8 8 8 8 8
10 10 10 10 10 10 9 9 9 9 9 9 9 8 8 8 8 8 8 8 8 7 7 7 7 7 7 7 7 7 7 7 7 8 8 8 8 8 8 8 8 7 7
10 10 9 9 9 9 9 9 9 9 8 8 8 8 8 8 8 8 7 7 7 7 7 7 7 7 7 7 7 7 7 7 7 7 7 7 7 7 7 7 7 7 7
9 9 9 9 9 9 9 9 9 8 8 8 8 8 8 8 7 7 7 7 7 7 7 7 7 7 6 7 7 7 7 7 7 7 7 7 7 7 7 7 7 7 7
9 9 9 9 9 9 9 8 8 8 8 8 8 8 7 7 7 7 7 7 7 7 7 6 6 6 6 6 6 6 7 7 7 7 7 7 7 7 7 6 7 7 7
Wind_Speed
3 3 3 2 2 2 2 1 1 1 1 1 1 1 1 1 2 2 2 2 2 1 1 1 1 1 1 1 1 1 1 1 2 1 0 1 0 1 1 1 1 0 1
3 3 3 2 2 2 1 1 1 1 1 1 1 1 1 1 1 1 1 1 1 1 1 1 1 1 1 1 1 1 1 1 2 1 0 1 0 0 1 1 1 1 0
4 3 3 2 2 1 1 1 1 1 1 1 1 1 1 1 1 1 0 0 0 0 0 0 0 0 1 0 0 1 1 1 1 2 1 0 0 1 1 1 1 1 0
4 3 3 3 2 2 1 1 1 1 1 0 0 0 1 1 1 1 0 0 1 1 1 1 1 1 1 1 1 1 1 1 1 1 1 0 1 1 0 0 1 1 1
4 4 3 3 2 2 1 1 1 1 1 1 0 1 1 1 1 0 0 0 1 1 1 1 1 2 2 2 1 2 2 2 1 1 1 1 1 1 1 1 1 1 1
4 4 3 2 2 2 2 2 1 1 0 0 0 0 1 1 2 1 0 0 1 1 2 2 2 2 2 1 1 2 3 3 3 2 2 2 3 2 2 2 1 1 2
4 4 3 3 2 2 1 1 1 1 1 0 1 1 1 2 3 3 2 0 1 2 2 2 2 2 1 1 1 1 1 3 5 4 4 4 4 4 3 3 3 2 2
4 3 2 3 2 2 1 1 1 1 1 1 1 1 1 2 3 3 2 1 1 2 2 2 2 2 1 0 1 1 1 2 3 3 4 5 5 4 4 4 4 3 2
3 2 2 2 2 2 2 2 1 1 1 1 1 1 1 2 3 2 2 1 1 2 2 2 1 1 2 1 1 1 2 3 3 3 4 5 6 5 4 2 2 2 3
3 2 2 2 2 2 2 2 1 1 1 1 1 1 1 2 3 2 1 0 1 2 2 2 3 2 2 2 2 3 3 4 3 3 3 3 3 3 5 5 4 4 3
2 2 2 2 2 2 1 1 1 1 1 0 1 2 2 2 3 3 2 1 2 2 3 3 3 4 3 3 3 4 5 4 3 3 3 2 2 2 3 3 4 4 4
3 3 2 1 1 2 2 1 1 1 1 1 1 2 2 3 3 3 3 2 2 2 3 3 4 4 4 4 4 4 5 3 2 2 2 3 3 3 4 4 5 5 6
3 2 2 2 2 2 2 1 1 1 0 1 1 2 3 3 3 4 4 3 3 2 3 5 5 5 4 3 4 4 3 2 2 2 3 4 4 4 3 3 3 3 4
3 2 2 2 1 1 1 1 1 1 1 1 1 2 3 3 3 3 3 3 3 2 3 4 4 4 3 3 3 3 2 3 3 4 4 4 3 3 3 2 3 2 3
2 2 1 1 1 0 0 1 2 2 3 2 2 2 2 3 4 4 2 2 2 2 2 2 2 2 2 2 2 3 2 2 3 4 4 4 3 3 3 3 2 2 3
3 2 1 1 1 1 0 1 2 1 1 0 1 2 2 3 4 3 2 2 2 1 1 1 2 3 3 4 4 4 3 3 4 4 4 4 4 4 4 3 3 3 4
3 2 1 1 1 1 1 1 1 3 3 2 1 2 2 3 2 2 2 1 1 1 0 2 3 3 4 4 4 4 4 4 4 4 4 4 4 4 4 4 4 4 5
2 2 2 1 1 1 1 2 2 1 2 2 3 3 3 3 3 2 2 2 2 2 2 3 3 4 3 3 4 3 3 3 3 3 4 4 4 4 4 5 5 5 5
2 2 1 1 1 1 1 1 1 1 1 2 2 3 3 2 2 2 1 1 2 3 3 3 4 4 4 3 3 3 4 4 4 4 4 4 4 4 5 5 5 6 6
2 1 1 1 0 0 1 1 1 1 1 1 2 2 2 1 2 2 2 2 3 4 4 4 4 4 4 4 4 4 4 4 4 4 5 4 4 4 5 5 5 5 5
1 1 1 0 1 1 1 1 1 1 2 2 3 3 2 2 3 3 3 3 4 4 5 5 5 5 5 4 4 5 5 5 5 5 5 5 4 4 4 4 4 4 4
1 1 1 1 1 1 1 2 2 2 2 3 3 3 3 2 3 3 4 4 4 5 5 4 5 5 5 5 5 5 5 6 6 5 5 5 4 4 4 4 3 4 4
1 1 1 1 1 1 1 2 2 2 3 3 3 3 3 3 3 4 4 5 5 5 5 4 5 5 5 5 5 5 6 6 6 6 5 5 4 4 4 4 4 4 4
1 1 1 1 2 1 2 2 3 3 3 3 3 3 3 3 4 5 5 5 5 5 5 5 5 7 8 6 5 6 7 7 7 6 6 5 4 4 4 4 4 5 4
1 1 2 2 2 2 2 3 3 3 3 3 4 3 3 3 4 4 5 5 5 6 7 6 5 6 7 8 7 7 7 8 7 6 5 4 4 4 4 4 4 3 3
1 2 2 2 2 2 3 3 3 3 3 4 4 4 4 4 4 5 5 5 5 6 6 6 7 7 8 7 8 8 7 6 5 5 4 3 4 3 3 3 4 3 3
Wind_Direction
146 133 112 100 100 110 113 125 135 122 118 108 103 83 56 43 46 53 34 39 57 50 54 85 48 49 74 64 90 108 124 157 187 245 288 342 13 8 21 41 47 29 209
147 129 119 108 95 92 119 173 152 129 108 117 94 74 44 31 37 57 31 31 50 67 57 71 9 42 57 77 105 133 154 165 168 188 266 335 327 325 340 341 358 352 340
143 136 132 126 123 146 202 164 134 135 112 78 74 51 1 353 355 337 311 331 336 300 311 118 291 76 42 66 145 180 178 155 149 163 202 293 333 358 5 331 327 340 288
143 153 162 173 179 185 170 133 122 137 143 99 28 332 324 332 322 321 333 336 327 317 303 269 266 230 229 223 207 200 172 149 133 143 165 259 283 303 254 299 323 323 296
155 174 191 188 178 164 148 145 128 133 170 175 112 360 352 337 320 339 259 306 318 314 305 282 264 252 244 222 208 195 180 173 164 174 202 210 251 249 236 237 251 289 273
170 190 193 178 177 181 173 156 149 158 194 165 231 319 338 325 332 325 304 282 300 291 294 291 280 271 271 261 234 210 195 193 197 196 209 228 244 243 235 230 221 242 270
179 189 190 186 188 194 174 152 190 220 215 223 275 299 308 315 335 343 342 352 309 297 291 294 292 294 318 274 281 276 247 216 206 200 212 232 238 231 217 227 221 225 245
174 183 193 188 191 186 173 202 228 218 213 223 240 264 292 317 346 354 6 15 325 311 293 272 271 284 271 219 219 280 285 269 242 223 223 239 242 230 217 221 221 225 258
166 179 194 188 186 184 200 223 225 208 225 250 251 277 298 315 343 358 11 342 330 319 307 299 277 265 274 214 172 246 289 292 281 253 245 252 252 234 205 189 200 216 254
189 186 174 166 174 188 205 208 203 183 223 267 340 314 296 309 338 359 14 312 313 311 314 309 286 278 270 221 210 217 244 273 290 294 291 293 267 249 219 209 209 220 234
158 131 116 123 149 160 164 171 169 154 105 9 340 329 323 316 319 327 320 273 268 286 292 295 287 283 265 246 229 229 238 246 256 260 270 282 286 266 249 235 222 218 221
124 115 108 95 98 108 119 110 108 112 94 345 329 324 316 308 307 307 300 270 259 258 271 277 277 280 267 256 246 245 244 238 241 249 263 269 271 269 264 254 242 233 232
113 119 110 86 84 90 114 128 130 126 177 279 304 307 312 316 318 321 320 313 296 277 271 272 277 278 271 258 253 254 247 232 234 248 255 261 263 265 268 266 260 256 253
110 117 110 106 82 72 83 151 171 198 221 257 273 287 304 317 323 328 328 327 330 313 299 298 292 281 270 264 275 269 251 238 234 244 255 263 273 274 268 258 257 261 262
116 112 119 126 138 117 39 237 224 221 207 207 230 238 262 291 295 295 292 299 300 292 300 318 325 317 307 293 288 281 271 260 252 251 253 262 265 264 268 262 248 242 246
139 139 134 154 179 186 224 337 345 312 323 246 226 234 257 268 296 303 297 294 305 316 54 317 299 294 285 281 283 285 279 268 264 258 254 255 259 262 267 266 252 247 254
155 164 160 174 200 210 219 230 321 352 10 22 360 332 308 317 329 333 328 331 351 92 56 301 293 289 283 276 273 272 273 272 268 261 255 257 257 256 259 261 257 255 260
150 156 157 176 195 217 229 232 223 239 309 329 333 330 326 314 326 347 354 37 11 3 314 295 294 295 291 286 283 280 280 283 281 278 271 268 260 254 255 258 255 254 257
156 167 167 179 200 247 250 242 242 237 254 302 330 331 325 312 325 352 41 359 304 306 299 293 294 297 298 297 296 293 286 284 286 282 275 272 268 263 259 256 255 253 252
167 173 148 157 200 253 288 280 271 258 263 282 296 302 320 347 336 323 311 297 291 291 289 287 291 291 290 290 288 287 287 286 286 278 274 269 264 259 260 262 257 253 252
181 188 137 117 236 247 245 265 271 262 262 269 280 284 271 264 267 274 280 282 280 281 283 283 284 286 284 284 281 280 281 280 278 276 275 272 265 261 260 259 259 255 251
171 171 170 206 235 253 273 274 273 272 269 273 289 296 284 271 270 276 281 283 281 275 273 274 279 281 280 279 276 275 276 276 278 280 277 271 263 258 254 253 257 256 250
164 174 198 252 251 257 279 281 274 272 274 275 281 288 284 279 280 282 284 287 287 285 279 271 271 276 277 271 267 264 267 271 271 270 269 267 263 260 253 249 250 255 251
180 199 226 258 271 268 273 278 277 274 276 276 278 278 277 277 280 284 286 289 292 293 289 280 274 277 282 282 275 269 268 274 276 269 257 251 254 259 258 254 250 248 246
198 215 236 250 258 266 273 278 281 282 283 281 278 276 276 279 284 287 289 289 292 293 295 292 283 282 283 285 288 288 291 284 277 272 262 250 246 247 253 255 252 251 246
223 236 250 256 257 260 264 271 277 283 284 283 280 277 275 278 286 291 290 288 291 291 292 292 291 287 286 287 289 299 297 294 290 280 262 254 250 251 254 259 255 242 237
Height
1511 1511 1512 1512 1513 1514 1514 1514 1514 1514 1514 1513 1513 1513 1512 1511 1510 1510 1509 1509 1508 1508 1508 1507 1507 1507 1507 1507 1507 1507 1507 1507 1506 1507 1507 1508 1508 1508 1509 1509 1509 1509 1509
1510 1511 1511 1511 1512 1512 1513 1513 1513 1513 1513 1513 1512 1511 1510 1510 1509 1508 1508 1507 1507 1506 1506 1506 1506 1505 1505 1505 1505 1505 1505 1505 1505 1505 1505 1506 1506 1507 1507 1507 1507 1507 1506
1509 1510 1510 1511 1511 1511 1511 1512 1512 1512 1512 1511 1511 1510 1509 1508 1508 1507 1507 1506 1505 1505 1504 1504 1504 1503 1503 1503 1503 1503 1503 1503 1503 1503 1503 1504 1504 1505 1505 1505 1505 1504 1504
1507 1508 1509 1509 1509 1510 1510 1510 1510 1510 1510 1510 1509 1508 1508 1507 1506 1506 1505 1504 1503 1503 1503 1502 1502 1501 1501 1501 1501 1501 1501 1501 1501 1501 1501 1501 1502 1502 1502 1502 1502 1502 1502
1506 1507 1507 1508 1508 1508 1509 1509 1509 1509 1508 1508 1507 1507 1506 1505 1504 1504 1503 1502 1501 1501 1500 1500 1500 1499 1499 1499 1498 1498 1498 1498 1498 1498 1499 1499 1499 1500 1500 1500 1500 1500 1500
1505 1505 1506 1506 1507 1507 1507 1507 1507 1506 1506 1506 1505 1505 1504 1503 1503 1502 1501 1500 1499 1499 1498 1497 1497 1497 1496 1496 1496 1496 1496 1495 1495 1496 1496 1496 1496 1497 1497 1497 1497 1498 1497
1503 1504 1504 1504 1505 1505 1505 1505 1505 1504 1504 1503 1503 1503 1502 1501 1500 1499 1498 1497 1497 1496 1495 1495 1494 1494 1494 1493 1493 1493 1493 1493 1494 1494 1493 1493 1494 1494 1494 1494 1494 1494 1494
1500 1501 1502 1502 1502 1502 1502 1502 1502 1502 1501 1501 1500 1499 1499 1499 1498 1497 1496 1495 1494 1494 1493 1492 1491 1491 1491 1491 1490 1490 1490 1490 1491 1491 1491 1491 1491 1491 1491 1492 1491 1491 1491
1498 1499 1500 1500 1500 1500 1500 1499 1499 1499 1499 1498 1497 1497 1496 1496 1495 1494 1493 1492 1491 1490 1490 1489 1489 1488 1488 1488 1488 1487 1487 1488 1488 1488 1488 1488 1488 1488 1488 1488 1488 1488 1487
1496 1496 1497 1497 1498 1497 1497 1497 1497 1497 1496 1495 1494 1494 1493 1493 1492 1491 1491 1490 1488 1487 1487 1486 1486 1485 1485 1485 1484 1484 1484 1484 1484 1484 1484 1484 1484 1484 1484 1484 1484 1484 1483
1493 1494 1494 1495 1495 1495 1494 1494 1494 1494 1493 1493 1492 1491 1491 1490 1489 1489 1488 1487 1485 1484 1483 1482 1482 1482 1482 1481 1481 1481 1480 1481 1480 1480 1480 1480 1480 1480 1480 1480 1480 1480 1480
1491 1492 1492 1492 1492 1492 1492 1492 1492 1492 1491 1490 1489 1489 1488 1487 1487 1486 1485 1484 1483 1481 1480 1479 1479 1478 1478 1478 1477 1477 1477 1477 1477 1477 1476 1476 1476 1476 1476 1476 1476 1476 1476
1490 1490 1490 1490 1490 1490 1489 1489 1489 1489 1488 1487 1486 1486 1485 1484 1484 1483 1482 1481 1479 1478 1477 1476 1475 1475 1474 1474 1474 1474 1474 1473 1473 1473 1472 1472 1472 1472 1472 1472 1472 1472 1472
1487 1488 1489 1488 1488 1488 1487 1487 1487 1486 1485 1484 1484 1483 1482 1481 1480 1479 1478 1477 1476 1475 1474 1473 1472 1472 1471 1470 1470 1470 1470 1470 1469 1469 1469 1469 1469 1468 1468 1468 1467 1467 1467
1486 1486 1487 1487 1486 1486 1486 1486 1485 1484 1483 1482 1481 1480 1479 1478 1478 1477 1475 1474 1473 1472 1471 1470 1469 1468 1467 1467 1466 1466 1466 1466 1465 1465 1465 1464 1464 1464 1464 1463 1463 1463 1462
1483 1484 1484 1484 1485 1484 1484 1483 1482 1482 1481 1480 1479 1479 1477 1477 1475 1474 1473 1472 1471 1470 1468 1466 1465 1464 1464 1463 1463 1462 1462 1461 1461 1461 1460 1460 1459 1459 1459 1459 1458 1458 1458
1481 1481 1482 1482 1482 1482 1482 1481 1480 1479 1479 1478 1477 1477 1475 1474 1473 1472 1470 1469 1468 1467 1465 1464 1462 1461 1461 1460 1459 1458 1457 1457 1457 1456 1456 1455 1455 1454 1454 1454 1454 1454 1454
1480 1480 1481 1480 1480 1480 1480 1479 1478 1477 1475 1474 1474 1474 1473 1472 1471 1469 1468 1467 1465 1464 1463 1461 1460 1458 1457 1456 1455 1454 1454 1453 1452 1452 1451 1451 1450 1450 1450 1449 1449 1449 1449
1478 1479 1479 1478 1478 1478 1477 1476 1475 1474 1473 1472 1471 1471 1471 1469 1468 1467 1466 1464 1462 1461 1460 1458 1457 1456 1455 1453 1452 1451 1450 1449 1448 1448 1447 1446 1446 1445 1445 1444 1444 1444 1444
1476 1477 1477 1476 1476 1475 1475 1474 1473 1472 1471 1470 1469 1468 1467 1466 1464 1463 1463 1461 1460 1458 1457 1455 1454 1453 1451 1450 1449 1447 1446 1445 1444 1443 1443 1442 1441 1441 1440 1440 1439 1440 1439
1474 1474 1474 1474 1474 1473 1472 1471 1471 1470 1469 1468 1467 1466 1465 1463 1462 1460 1459 1458 1457 1455 1454 1452 1451 1449 1448 1446 1445 1444 1442 1441 1440 1439 1438 1437 1436 1436 1435 1435 1435 1435 1435
1472 1472 1472 1471 1471 1470 1470 1469 1468 1467 1466 1465 1464 1463 1462 1460 1459 1458 1456 1455 1454 1452 1451 1449 1447 1446 1444 1443 1441 1439 1438 1437 1435 1434 1433 1432 1431 1431 1431 1430 1430 1430 1430
1471 1470 1470 1469 1469 1468 1467 1466 1465 1464 1463 1462 1461 1460 1459 1457 1456 1455 1453 1452 1450 1449 1447 1445 1443 1442 1440 1439 1437 1435 1434 1432 1431 1430 1429 1428 1427 1426 1426 1426 1425 1426 1426
1469 1469 1468 1467 1466 1465 1464 1463 1463 1461 1460 1459 1458 1457 1456 1454 1453 1452 1450 1449 1447 1445 1443 1441 1439 1437 1436 1434 1433 1431 1429 1428 1427 1426 1425 1424 1423 1422 1422 1421 1421 1421 1421
1467 1466 1466 1465 1464 1462 1462 1461 1460 1458 1457 1456 1455 1454 1453 1452 1450 1449 1447 1445 1443 1441 1439 1437 1435 1433 1431 1430 1428 1427 1425 1424 1423 1422 1421 1420 1419 1418 1418 1418 1418 1418 1418
1465 1464 1463 1462 1461 1460 1459 1458 1457 1455 1454 1453 1452 1451 1450 1448 1447 1445 1443 1441 1439 1437 1435 1433 1431 1429 1427 1425 1424 1423 1421 1420 1419 1418 1417 1416 1415 1415 1414 1414 1414 1414 1415